CZ-3A DEB, 35551

Orbit data source: Space-Track

CZ-3A DEB, 35551 is space debris in HEO originally from a launch on Fri, 02 Feb 2007 UTC launched from the Xichang Space Center, China (XSC). Debris objects in space refer to the collection of defunct objects orbiting the Earth. Examples of debris include non-operational satellites, rocket bodies, and fragments generated from explosions, collisions, or faulty payload assembly.

Not visible in the next 10 days
Identifier
35551, 2007-003K
Orbit
HEO
Country
Flag of CNCN / PRC
Related business
Manufacturer
Unknown
Mission
Spacecraft
Bus & Motor
Unknown
Mass
Unknown
Launch date (UTC)
2007-02-02 (19 years ago)
Launch vehicle
Unknown
Launch site
Xichang Space Center, China (XSC)
Object type
Payload
Rocket body
Debris
Shape & HBR
Unknown shape, 0.1 m
Radar Cross Section
Medium (>0.1 m² and <1 m²)

Expand to show TLE details & history
Last TLE update: 17 hours ago

TLE from 17 hours ago
0 CZ-3A DEB
1 35551U 07003K   26035.92784270  .00000216  00000-0  49308-2 0  9999
2 35551  24.8787 276.8319 7238105  59.9747 352.0884  2.16465953 18190
Epoch: 2026-02-04T22:16Z
TLE epoch observation values (Epoch: 2026-02-04T22:16:05.609Z)
Latitude
-0.00011°
Longitude
167.79114°
Altitude
2,407.584 km
Speed
8.657 km/s
True Right ascension
18h 27m 36s
True Declination
0° 00' 00"
Sunlit
Object was in daylight at epoch
Visualization orbit readout
Latitude
Unknown
Longitude
Unknown
Altitude
Unknown
Speed
Unknown
Apparent Right ascension
Unknown
Apparent Declination
Unknown
Sunlit
N/A
Visualization observer readout
Local Sidereal Time
16:57:22
Azimuth
Unknown
Elevation
Unknown
Doppler factor
Unknown
Orbital elements
Apogee altitude
37,142.878 km
Perigee altitude
594.815 km
Semi-major axis
25,246.983 km
Eccentricity
0.72381
Inclination
24.8787°
RAAN
276.8319°
Arg. of periapsis
59.9747°
True anomaly
299.53517°
Mean anomaly
352.0884°
Eccentric anomaly
333.73894°
Mean motion
0.54104 °/min
Orbital period
665.39 mins
BSTAR
0.0049308
Loading maneuver chart data...
Computing Atmospheric mass density...
Loading historical data...
Loading historical data...
Loading historical data...
Loading historical data...
Loading historical data...
Loading historical data...
Loading historical data...

Documentation

Showing up to 5 results
|